TimeMST,TemperatureF,Dew PointF,Humidity,Sea Level PressureIn,VisibilityMPH,Wind Direction,Wind SpeedMPH,Gust SpeedMPH,PrecipitationIn,Events,Conditions,WindDirDegrees,DateUTC
12:53 AM,39.2,26.6,61,29.96,10.0,Calm,Calm,-,N/A,,Clear,0,2013-02-06 07:53:00
1:53 AM,39.0,27.0,62,29.91,10.0,Calm,Calm,-,N/A,,Clear,0,2013-02-06 08:53:00
2:53 AM,37.9,27.0,65,29.91,9.0,Calm,Calm,-,N/A,,Clear,0,2013-02-06 09:53:00
3:53 AM,37.9,28.0,68,29.88,10.0,Calm,Calm,-,N/A,,Clear,0,2013-02-06 10:53:00
4:53 AM,37.9,28.9,70,29.88,10.0,SSE,4.6,-,N/A,,Clear,160,2013-02-06 11:53:00
5:53 AM,39.0,28.9,67,29.89,10.0,Calm,Calm,-,N/A,,Clear,0,2013-02-06 12:53:00
6:53 AM,37.9,28.0,68,29.91,10.0,Calm,Calm,-,N/A,,Clear,0,2013-02-06 13:53:00
7:53 AM,39.9,28.0,63,29.92,10.0,Calm,Calm,-,N/A,,Clear,0,2013-02-06 14:53:00
8:53 AM,39.9,28.0,63,29.94,10.0,NNW,4.6,-,N/A,,Clear,330,2013-02-06 15:53:00
9:53 AM,42.1,28.0,58,29.95,10.0,Calm,Calm,-,N/A,,Scattered Clouds,0,2013-02-06 16:53:00
10:53 AM,44.1,30.0,58,29.95,10.0,Calm,Calm,-,N/A,,Partly Cloudy,0,2013-02-06 17:53:00
11:53 AM,46.9,28.9,50,29.94,10.0,NNE,5.8,-,N/A,,Clear,20,2013-02-06 18:53:00
12:53 PM,50.0,28.9,44,29.90,10.0,Calm,Calm,-,N/A,,Clear,0,2013-02-06 19:53:00
1:53 PM,53.1,28.9,40,29.88,10.0,NNE,4.6,-,N/A,,Clear,30,2013-02-06 20:53:00
2:53 PM,55.0,27.0,34,29.86,10.0,Variable,4.6,-,N/A,,Clear,0,2013-02-06 21:53:00
3:53 PM,57.0,26.1,30,29.86,10.0,Calm,Calm,-,N/A,,Clear,0,2013-02-06 22:53:00
4:53 PM,57.9,26.1,30,29.87,10.0,Calm,Calm,-,N/A,,Clear,0,2013-02-06 23:53:00
5:53 PM,54.0,28.9,38,29.92,10.0,NW,4.6,-,N/A,,Mostly Cloudy,310,2013-02-07 00:53:00
6:53 PM,53.1,30.0,41,29.95,10.0,NNE,6.9,-,N/A,,Overcast,30,2013-02-07 01:53:00
7:53 PM,48.9,28.9,46,29.98,10.0,NE,3.5,-,N/A,,Clear,50,2013-02-07 02:53:00
8:53 PM,46.9,28.9,50,30.01,10.0,Calm,Calm,-,N/A,,Clear,0,2013-02-07 03:53:00
9:53 PM,44.1,30.0,58,30.04,4.0,Calm,Calm,-,N/A,,Haze,0,2013-02-07 04:53:00
10:53 PM,43.0,30.9,62,30.04,7.0,Calm,Calm,-,N/A,,Clear,0,2013-02-07 05:53:00
11:53 PM,42.1,30.9,65,30.05,10.0,Calm,Calm,-,N/A,,Clear,0,2013-02-07 06:53:00